Tracking 28126 objects as of 1-Oct-2023
HD Live streaming from Space Station
objects crossing your sky now

DELTA 1 DEB

Track DELTA 1 DEB now!
10-day predictions


NORAD ID: 10758
Int'l Code: 1976-077BF
Perigee: 1,506.9 km
Apogee: 1,756.0 km
Inclination: 102.3 °
Period: 118.7 minutes
Semi major axis: 8002 km
RCS: 0.23 m2 (medium)
Launch date: July 29, 1976
Source: United States (US)
Launch site: AIR FORCE WESTERN TEST RANGE (AFWTR)

Note: This is SATELLITE DEBRIS
Your satellite tracking list
Your tracking list is empty




NASA's NSSDC Master Catalog

Two Line Element Set (TLE):
1 10758U 76077BF  23273.72201425 -.00000016  00000-0  26799-3 0  9992
2 10758 102.3214 243.7514 0155682 107.9321  67.4119 12.12742123 89013
Source of the keplerian elements: AFSPC